{"data":{"norad_id":68287,"epoch":"2026-09-19T23:15:36.116064Z","epoch_age_seconds":97438,"freshness":"FRESH","line1":"1 68287U 26055AB  26262.96916801  .00023693  00000+0  70995-3 0  9992","line2":"2 68287  53.1592 132.0358 0001363  89.3058 270.8101 15.34408904 29745","mean_motion":15.34408904,"eccentricity":0.0001363,"inclination_deg":53.1592,"raan_deg":132.0358,"arg_perigee_deg":89.3058,"mean_anomaly_deg":270.8101,"bstar":0.00070995,"rev_number":2974,"period_min":93.84721349349,"perigee_km":461.74437285301,"apogee_km":463.60917868829,"semimajor_km":6840.8137757706,"source":"CELESTRAK","updated_at":"2026-09-20T09:00:43.851668Z"}}